Regional Weather Roundup
Issued by NWS

Home | Current Version | Previous Version | Graphics & Text | Print | Product List | Glossary On
Versions: 1 2 3 4 5 6 7 8 9 10 11 12 13 14 15 16 17 18 19 20 21 22 23 24 25 26 27 28 29 30 31 32 33 34 35 36 37 38 39 40 41 42 43 44 45 46 47 48 49 50
000
ASUS43 KTOP 260159
RWRKS

WEATHER ROUNDUP FOR KANSAS
NATIONAL WEATHER SERVICE GOODLAND KS
900 PM CDT TUE APR 25 2017

NOTE:  "FAIR" INDICATES FEW OR NO CLOUDS BELOW 12,000 FEET WITH NO
SIGNIFICANT WEATHER AND/OR OBSTRUCTIONS TO VISIBILITY.

KSZ001>006-013>018-027>032-041>047-260300-
NORTHWEST KANSAS

CITY           SKY/WX    TMP DP  RH WIND       PRES   REMARKS
GOODLAND       MOCLDY    47  41  80 NE14      29.66R
HAYS           CLOUDY    47  41  80 N18       29.61R
HILL CITY      CLOUDY    46  40  79 N20G25    29.67R
RUSSELL        CLOUDY    47  40  76 N17       29.59R
$$

KSZ061>065-074>080-084>089-260300-
SOUTHWEST KANSAS

CITY           SKY/WX    TMP DP  RH WIND       PRES   REMARKS
DODGE CITY     LGT RAIN  51  47  86 N12       29.57R
ELKHART          N/A     51  43  74 NE8         N/A
GARDEN CITY    CLOUDY    53  43  68 NE13      29.58R
GREAT BEND     CLOUDY    49  42  77 N16       29.58R
$$

KSZ066>073-081>083-090>101-260300-
SOUTHEAST KANSAS

CITY           SKY/WX    TMP DP  RH WIND       PRES   REMARKS
CHANUTE        TSTM      67  64  90 W16G22    29.45R
COFFEYVILLE    CLOUDY    72  62  71 CALM      29.41R THUNDER
HUTCHINSON     LGT RAIN  50  43  77 N18G24    29.51F
MEDICINE LODGE   N/A     52  46  80 N13G21    29.51R
NEWTON         MOCLDY    50  46  86 N17G25    29.53R
PARSONS        TSTM      67  62  84 W12G21    29.44R
WICHITA INTL   PTCLDY    54  48  80 N21G30    29.51R
WICHITA JABRA  CLEAR     52  48  86 N16G24    29.50R
WINFIELD       CLOUDY    59  53  80 N14       29.48R
$$

KSZ007>012-019>026-033>040-048>060-102>105-260300-
NORTHEAST KANSAS

CITY           SKY/WX    TMP DP  RH WIND       PRES   REMARKS
CONCORDIA      CLOUDY    44  38  79 N18G25    29.61R
EMPORIA        CLOUDY    54  50  86 N10G20    29.47R
LAWRENCE       CLOUDY    60  50  69 NW22G29   29.48R
MANHATTAN      LGT RAIN  49  43  80 N10G18    29.56R
OLATHE IND     CLOUDY    67  57  70 N10       29.45R
OLATHE EXE     CLOUDY    68  59  73 CALM      29.44S
SALINA         LGT RAIN  48  42  80 N20       29.58R
TOPEKA BILLARD CLOUDY    55  49  80 NW14      29.52R
TOPEKA FORBES  CLOUDY    57  49  74 NW15G24   29.50R
$$




USA.gov is the U.S. government's official web portal to all federal, state and local government web resources and services.